Regional Weather Roundup
Issued by NWS Charleston, WV

Home | Current Version | Previous Version | Text Only | Print | Product List | Glossary Off
Versions: 1 2 3 4 5 6 7 8 9 10 11 12 13 14 15 16 17 18 19 20 21 22 23 24 25 26 27 28 29 30 31 32 33 34 35 36 37 38 39 40 41 42 43 44 45 46 47 48 49 50

166
ASUS41 KRLX 201110
RWRRLX
West Virginia Regional Weather Roundup
National Weather Service Charleston WV
600 AM EST TUE FEB 20 2018

Note: "fair" indicates few or no clouds below 12,000 feet with no
significant weather and/or obstructions to visibility.

WVZ003-201200-
Northern Panhandle of West Virginia

CITY           SKY/WX    TMP DP  RH WIND       PRES   REMARKS
WHEELING       MOCLDY    63  51  65 SW13      30.19R
$$

WVZ009-201200-
Northwest West Virginia

CITY           SKY/WX    TMP DP  RH WIND       PRES   REMARKS
PARKERSBURG    MOCLDY    64  51  62 S10       30.23R
$$

WVZ006-201200-
Western West Virginia

CITY           SKY/WX    TMP DP  RH WIND       PRES   REMARKS
HUNTINGTON       N/A     64  50  60 S7        30.22R
$$

WVZ015-201200-
West Central West Virginia

CITY           SKY/WX    TMP DP  RH WIND       PRES   REMARKS
CHARLESTON       N/A     65  51  60 S10       30.23S
$$

WVZ022-031-201200-
North Central West Virginia

CITY           SKY/WX    TMP DP  RH WIND       PRES   REMARKS
CLARKSBURG     MOCLDY    64  50  60 SW12      30.24R
MORGANTOWN       N/A     65  49  56 S8        30.24R
$$

WVZ025-035-042-045-201200-
Southern West Virginia

CITY           SKY/WX    TMP DP  RH WIND       PRES   REMARKS
BECKLEY          N/A     54  49  83 SE10      30.34R
LOGAN            N/A     63  52  67 S8        30.28R
BLUEFIELD        N/A     55  48  77 S3        30.37R
LEWISBURG      FOG       40  40  99 NE5       30.38R VSB 1/2
$$

WVZ047-201200-
Northern Mountains of West Virginia

CITY           SKY/WX    TMP DP  RH WIND       PRES   REMARKS
ELKINS         CLOUDY    62  48  60 S8        30.30R
$$

WVZ052-201200-
Eastern Panhandle of West Virginia

CITY           SKY/WX    TMP DP  RH WIND       PRES   REMARKS
MARTINSBURG    CLOUDY    40  40 100 CALM      30.29R FOG
PETERSBURG       N/A     44  43  97 CALM      30.29R
$$




USA.gov is the U.S. government's official web portal to all federal, state and local government web resources and services.